sat.trackr.live / text

‹ back to catalog

HULIANWANG DIGUI-08

NORAD 62330 · 2024-240H

PAYLOAD ACTIVE UNKNOWN

§ Identity

Operator
Country
PRC
Launch date
2024-12-16
Launch site
WSC
Launch vehicle
Mass (kg)
RCS (m²)

External: N2YO · Heavens-Above · Gunter

§ Orbital elements

Epoch: 2026-05-25T03:39:34.723008Z

Period
108.73 min
Inclination
86.5037°
Eccentricity
0.0001303
Mean motion
13.24408578 rev/d
Perigee alt
1,166.9 km
Apogee alt
1,168.9 km
Semi-major
7,546.1 km
B*
9.5720e-5
RAAN
351.1683°
Arg perigee
91.6953°
Mean anomaly
268.4331°
Rev number
6,959

§ Raw data

HULIANWANG DIGUI-081 62330U 24240H   26145.15248522  .00000056  00000+0  95720-4 0  99902 62330  86.5037 351.1683 0001303  91.6953 268.4331 13.24408578 69590

JSON: /api/v1/satellites/62330 · /tle

For live sub-satellite position, see the globe view (requires WebGL).

§ Visibility from observer

Set your observer location to see the next 7 days of passes ≥ 10°. The values pass through the URL so the page stays shareable.

No JS? Fill the form by hand. The geolocation button needs JavaScript.